[[{"header":{"parameterUnit":"m.s-1","parameterCategory":1,"la1":30.2991,"la2":30.254,"lo1":-89.0895,"lo2":-89.0444,"dy":0.0017,"dx":0.0017,"nx":28,"ny":28,"refTime":"2025-06-19T03:00:00:Z","depth":0,"parameterNumber":2,"parameterNumberName":"U-component_of_WINDS"},"data":[0,0,0,0,0,0,0,0,0,0,0,0,0,0,0,0,0,0,0,0,0,0,0,0,0,0,0,0,0,0,0,0,0,0,0,0,0,0,0,0,0,0,0,0,0,0,0,0,0,0,0,0,0,0,0,0,0,0,1.9954,1.9956,0,2.0103,2.0104,2.0106,2.0121,2.012,2.0118,2.0117,2.0266,2.0272,2.0277,0,0,0,0,0,0,0,0,0,0,0,0,0,1.9681,1.9686,1.9954,1.9956,1.9958,2.0102,2.0104,2.0106,2.0122,2.012,2.0118,2.0116,2.0265,2.0271,2.0278,0,0,0,0,0,0,0,0,0,0,0,0,0,1.9811,1.9687,1.9954,1.9983,1.9987,2.0102,2.0105,2.0107,2.0122,2.012,2.0118,2.0115,2.0263,2.027,2.0278,2.0374,0,0,2.0303,2.0307,0,0,0,0,0,0,0,0,1.9804,1.9821,1.9977,1.9981,1.9986,2.0091,2.0063,2.0196,2.0123,2.0071,2.0117,2.0114,2.021,2.0222,2.0255,2.0381,2.0387,2.0304,2.0309,2.0312,2.0315,0,0,0,0,0,0,0,1.9795,1.9815,2.0013,1.9979,1.9985,1.9988,2.0004,2.0088,2.0151,2.0075,2.0077,2.0094,2.0212,2.0247,2.0258,2.0389,2.0304,2.0311,2.0316,2.0319,2.06,2.0603,0,0,0,0,0,0,1.9781,1.9807,2.0008,2.0017,1.9888,1.9994,2.0012,2.006,2.015,2.0162,2.0096,2.0094,2.0234,2.0249,2.0264,2.0381,2.0312,2.032,2.0324,2.0598,2.0601,2.0604,0,0,0,0,0,0,1.9775,1.9798,2.0002,1.9913,1.9939,2.0002,2.0055,2.0064,2.0099,2.0166,2.0177,2.012,2.0233,2.0252,2.0346,2.0386,2.0323,2.0331,2.0595,2.0599,2.0602,2.0616,0,0,0,0,0,0,1.9767,1.9796,1.9834,1.9914,1.9944,2.0083,2.0057,2.0068,2.0113,2.0113,2.0192,2.0203,2.0233,2.0334,2.0354,2.0396,2.0337,2.0591,2.0597,2.0601,2.0612,2.062,2.0627,0,0,0,0,0,1.9757,1.9831,1.9836,1.986,1.9992,2.0085,2.0102,2.0136,2.0116,2.0154,2.0197,2.02,2.0379,2.0344,2.0367,2.0412,2.0589,2.0595,2.0601,2.0609,2.0619,2.0627,0,0,0,0,0,0,1.9753,1.9842,1.9848,1.995,2.001,2.0088,2.0136,2.0145,2.0211,2.0207,2.0246,2.0263,2.0356,2.0393,2.0352,2.0508,2.0482,2.0493,2.048,2.049,2.0497,2.0486,2.0344,0,0,0,0,0,1.9765,1.9834,1.9907,1.999,2.002,2.0073,2.0115,2.0136,2.0199,2.0224,2.0274,2.0335,2.0404,2.0449,2.0517,2.0618,2.0635,2.066,2.0667,2.0673,2.0682,2.0737,2.0749,2.0623,2.0623,2.0623,0,0,1.9788,1.9845,1.9886,1.9991,2.004,2.011,2.0094,2.0169,2.0221,2.0235,2.0327,2.0366,2.0436,2.0534,2.0579,2.0568,2.072,2.0681,2.0684,2.069,2.0744,2.0756,2.0767,2.0627,2.0627,2.0626,0,0,1.9867,1.9917,1.9992,2.0042,2.0116,2.0151,2.0169,2.0245,2.0272,2.0365,2.0377,2.0439,2.0558,2.0608,2.0648,2.0746,2.0751,2.0767,2.0804,2.0858,2.0867,2.0876,2.091,2.0922,2.0775,2.0775,2.0776,0,1.9886,1.9993,2.0029,2.0104,2.0149,2.0166,2.0242,2.0288,2.038,2.0411,2.0397,2.0547,2.0595,2.0705,2.0728,2.0761,2.0782,2.0758,2.0863,2.0873,2.0882,2.0914,2.0927,2.0777,2.0777,2.0777,2.0776,0,2.0013,2.0087,2.0138,2.0228,2.0279,2.0354,2.04,2.0448,2.0464,2.05,2.0594,2.0653,2.0733,2.076,2.0777,2.0872,2.0862,2.0856,2.083,2.0894,2.0926,2.0939,2.0779,2.0778,2.0778,2.0778,0,0,2.0093,2.0202,2.022,2.0261,2.0345,2.0402,2.0477,2.0556,2.0596,2.0659,2.0722,2.0823,2.0817,2.0864,2.0886,2.0933,2.1006,2.092,2.0923,2.0933,2.1113,2.1117,2.1131,2.101,2.1013,2.1015,2.1107,0,2.018,2.0315,2.035,2.0465,2.0533,2.0551,2.0616,2.0674,2.0709,2.0772,2.0811,2.0881,2.0869,2.0897,2.0944,2.0987,2.1042,2.0981,2.1068,2.1071,2.1049,2.1148,2.1153,2.1237,2.112,2.1122,2.1123,0,2.03,2.0367,2.0489,2.0564,2.0594,2.0652,2.0727,2.0787,2.0852,2.0875,2.0927,2.0945,2.1022,2.0993,2.11,2.1058,2.1095,2.1122,2.1126,2.1135,2.11,2.1158,2.1265,2.1277,2.1143,2.1142,2.114,0,2.0345,2.0465,2.0554,2.0588,2.0678,2.0719,2.0758,2.0821,2.0867,2.0932,2.0962,2.1035,2.1075,2.1131,2.1167,2.1143,2.1271,2.1245,2.1291,2.129,2.1317,2.1315,2.143,2.1343,2.1342,2.1342,2.1342,0,2.0438,2.0512,2.0575,2.0629,2.0712,2.0751,2.0831,2.0871,2.0927,2.0989,2.1009,2.1065,2.1111,2.1174,2.1203,2.1287,2.1305,2.1325,2.1331,2.1323,2.132,2.1347,2.1342,2.1346,2.1345,2.1344,2.1344,0,2.0502,2.0548,2.0645,2.0722,2.0744,2.0801,2.0867,2.092,2.0956,2.1033,2.1054,2.1111,2.1186,2.1228,2.1323,2.1342,2.1435,2.144,2.1413,2.1416,2.146,2.1455,2.1596,2.1616,2.1516,2.1517,2.1518,0,2.0558,2.0616,2.0699,2.0743,2.0783,2.0852,2.0898,2.0939,2.0986,2.1066,2.1109,2.1185,2.1249,2.1368,2.1417,2.1489,2.1494,2.1539,2.1505,2.1494,2.1494,2.149,2.1495,2.1544,2.1545,2.1546,2.1547,0,2.0653,2.0673,2.074,2.0815,2.087,2.0931,2.0991,2.1025,2.1075,2.1128,2.1205,2.1255,2.1351,2.1427,2.1503,2.1542,2.1552,2.1557,2.1571,2.1562,2.1544,2.1554,2.1428,2.1553,2.1553,2.1552,2.1552,2.1551,2.0714,2.0766,2.0833,2.0907,2.0957,2.1013,2.1066,2.111,2.1176,2.1258,2.1278,2.1359,2.1423,2.1527,2.1568,2.1632,2.1623,2.1644,2.165,2.1654,2.1655,2.1535,2.1646,2.1646,2.1645,2.1645,2.1645,0,2.0809,2.0854,2.0922,2.1006,2.1064,2.107,2.1137,2.1184,2.1256,2.1316,2.1378,2.1467,2.154,2.1595,2.167,2.171,2.1717,2.1728,2.1725,2.1734,2.1658,2.1638,2.1722,2.1722,2.1722,2.1722,2.1722,2.1722,2.0866,2.0953,2.0981,2.1093,2.1137,2.1217,2.1255,2.1306,2.1354,2.1453,2.1514,2.155,2.1608,2.1687,2.1754,2.1768,2.1794,2.1805,2.182,2.1748,2.1739,2.1732,2.1713,2.1811,2.1811,2.189,2.1891,2.1891]},{"header":{"parameterUnit":"m.s-1","parameterCategory":1,"la1":30.2991,"la2":30.254,"lo1":-89.0895,"lo2":-89.0444,"dy":0.0017,"dx":0.0017,"nx":28,"ny":28,"refTime":"2025-06-19T03:00:00:Z","depth":0,"parameterNumber":3,"parameterNumberName":"V-component_of_WINDS"},"data":[0,0,0,0,0,0,0,0,0,0,0,0,0,0,0,0,0,0,0,0,0,0,0,0,0,0,0,0,0,0,0,0,0,0,0,0,0,0,0,0,0,0,0,0,0,0,0,0,0,0,0,0,0,0,0,0,0,0,4.176,4.1761,0,4.184,4.1841,4.1842,4.1796,4.1794,4.1792,4.1789,4.1865,4.1869,4.1873,0,0,0,0,0,0,0,0,0,0,0,0,0,4.1561,4.1565,4.176,4.1761,4.1762,4.184,4.1841,4.1842,4.1796,4.1794,4.1791,4.1788,4.1864,4.1869,4.1874,0,0,0,0,0,0,0,0,0,0,0,0,0,4.1644,4.1566,4.176,4.1749,4.1749,4.184,4.1841,4.1842,4.1797,4.1794,4.179,4.1787,4.1862,4.1868,4.1874,4.1979,0,0,4.1893,4.1896,0,0,0,0,0,0,0,0,4.164,4.1652,4.1749,4.175,4.175,4.1805,4.1798,4.1888,4.1798,4.1778,4.1789,4.1786,4.1847,4.1855,4.1877,4.1982,4.1986,4.1894,4.1897,4.19,4.1902,0,0,0,0,0,0,0,4.1634,4.1648,4.1791,4.1751,4.1751,4.1737,4.1746,4.1815,4.183,4.178,4.1777,4.1787,4.1847,4.1871,4.1878,4.1987,4.1894,4.1899,4.1903,4.1905,4.2179,4.2183,0,0,0,0,0,0,4.163,4.1644,4.1789,4.1794,4.1686,4.1744,4.1753,4.179,4.183,4.1833,4.179,4.1785,4.1862,4.1871,4.1881,4.2004,4.19,4.1906,4.1909,4.2176,4.218,4.2184,0,0,0,0,0,0,4.1626,4.1643,4.1786,4.1718,4.1735,4.1751,4.1793,4.1794,4.1818,4.1837,4.1839,4.1812,4.186,4.1872,4.1955,4.2006,4.1908,4.1914,4.2172,4.2177,4.2182,4.2254,0,0,0,0,0,0,4.162,4.1642,4.1684,4.1719,4.1739,4.1861,4.1796,4.1798,4.1829,4.1823,4.1859,4.1861,4.1858,4.1946,4.1961,4.2013,4.1919,4.2167,4.2174,4.218,4.2247,4.2261,4.2273,0,0,0,0,0,4.1613,4.17,4.1686,4.1704,4.1792,4.1864,4.1875,4.1871,4.1834,4.1874,4.1886,4.186,4.1998,4.1955,4.1971,4.2026,4.2164,4.2172,4.218,4.2241,4.2258,4.2272,0,0,0,0,0,0,4.1669,4.1705,4.169,4.1791,4.1825,4.1856,4.1908,4.189,4.1934,4.1926,4.1917,4.1926,4.2012,4.2027,4.1978,4.2128,4.2075,4.2086,4.2115,4.2132,4.2145,4.2139,4.1924,0,0,0,0,0,4.1693,4.1751,4.1778,4.1865,4.1883,4.1892,4.1924,4.1918,4.1952,4.1966,4.1984,4.2016,4.2066,4.21,4.2147,4.2248,4.2254,4.2294,4.2307,4.2317,4.2328,4.238,4.2398,4.2211,4.2211,4.221,0,0,4.1744,4.177,4.1807,4.1877,4.1902,4.196,4.1905,4.1969,4.2011,4.1974,4.2054,4.2068,4.2103,4.2195,4.2237,4.2211,4.238,4.2328,4.2336,4.2341,4.239,4.2408,4.2424,4.2216,4.2215,4.2214,0,0,4.1865,4.1892,4.1966,4.1993,4.2033,4.2038,4.2056,4.209,4.2099,4.2179,4.2152,4.22,4.2288,4.2314,4.2338,4.2467,4.2444,4.2482,4.2551,4.2602,4.2617,4.263,4.2675,4.2691,4.2492,4.2493,4.2493,0,4.1922,4.2011,4.2006,4.2072,4.2102,4.2073,4.2147,4.2172,4.2225,4.2245,4.2216,4.2324,4.2346,4.2442,4.2474,4.2495,4.2513,4.2479,4.2615,4.2628,4.264,4.2683,4.27,4.2497,4.2497,4.2496,4.2496,0,4.2078,4.2139,4.2194,4.2248,4.2284,4.2353,4.2357,4.2393,4.2383,4.2391,4.2471,4.2496,4.2548,4.257,4.2561,4.2665,4.2647,4.2617,4.2563,4.2663,4.2703,4.2719,4.2503,4.2502,4.25,4.2499,0,0,4.2238,4.2287,4.2308,4.2331,4.2371,4.2418,4.2484,4.2536,4.2567,4.2603,4.2657,4.2731,4.2703,4.2731,4.2723,4.2769,4.2867,4.2732,4.2733,4.2756,4.2982,4.3005,4.3024,4.2852,4.2855,4.2857,4.2978,0,4.2362,4.2481,4.2478,4.2588,4.2643,4.2615,4.2672,4.2702,4.2711,4.2757,4.2765,4.2817,4.2776,4.2793,4.2836,4.2846,4.2912,4.2837,4.29,4.2903,4.2893,4.3045,4.3069,4.3183,4.2994,4.2997,4.2999,0,4.2523,4.2566,4.2682,4.2713,4.2736,4.2789,4.2834,4.288,4.2911,4.2914,4.2945,4.293,4.2994,4.2939,4.3026,4.2975,4.3,4.3009,4.3013,4.3019,4.2957,4.3054,4.3219,4.3236,4.3023,4.3021,4.302,0,4.2627,4.2714,4.2794,4.2815,4.2854,4.2891,4.2908,4.2937,4.2967,4.3006,4.3026,4.3071,4.3096,4.3131,4.3127,4.3088,4.3216,4.3161,4.3219,4.3219,4.3247,4.3246,4.3418,4.3264,4.3264,4.3263,4.3263,0,4.2766,4.2838,4.2842,4.2891,4.297,4.2964,4.3041,4.3054,4.3079,4.3128,4.3106,4.3152,4.3145,4.3191,4.3188,4.326,4.3272,4.3274,4.3273,4.3276,4.3276,4.3293,4.3285,4.3268,4.3267,4.3266,4.3265,0,4.2897,4.2903,4.2988,4.3017,4.3026,4.3083,4.3106,4.3151,4.3157,4.322,4.3234,4.3242,4.3295,4.3295,4.3354,4.3352,4.344,4.343,4.3431,4.3428,4.3486,4.3481,4.3676,4.37,4.353,4.3532,4.3533,0,4.2985,4.304,4.3075,4.3107,4.3127,4.3179,4.3211,4.3205,4.3238,4.3278,4.3318,4.3368,4.3409,4.3493,4.3503,4.3548,4.3538,4.3603,4.3544,4.3546,4.3538,4.3535,4.3539,4.3614,4.3616,4.3618,4.3619,0,4.3141,4.3141,4.3188,4.3236,4.3274,4.3311,4.3345,4.3372,4.337,4.3407,4.3461,4.3493,4.3553,4.3603,4.3646,4.366,4.3639,4.3637,4.3653,4.3658,4.3655,4.3657,4.3462,4.3633,4.3632,4.3631,4.363,4.3629,4.3253,4.3299,4.3331,4.3384,4.3409,4.344,4.3484,4.3495,4.3541,4.3591,4.3584,4.3644,4.3672,4.3727,4.3746,4.3791,4.3768,4.3791,4.3796,4.3802,4.3808,4.3648,4.3798,4.3798,4.3798,4.3797,4.3797,0,4.3407,4.3426,4.3474,4.3523,4.3563,4.3541,4.3576,4.3611,4.3665,4.3693,4.3733,4.3794,4.3841,4.3855,4.39,4.3933,4.3924,4.3945,4.3942,4.3946,4.3827,4.3808,4.3951,4.3951,4.3951,4.3951,4.3951,4.3951,4.3492,4.3569,4.3572,4.3661,4.3678,4.3738,4.376,4.3788,4.3811,4.388,4.392,4.3929,4.3951,4.3997,4.4039,4.4041,4.4058,4.4083,4.4081,4.397,4.3954,4.394,4.3923,4.4087,4.4087,4.4197,4.4198,4.4199]}]]